This is the latest recevied weather packets stored in our database for station/object N9WHM. If no packets are shown the sender has not sent any weather packets the latest 10 day(s).
| Time | Temp. | Humidity | Pressure | Rain* | Wind** | Luminosity | Snow |
|---|---|---|---|---|---|---|---|
| 1778323873 | 7.22° C | 64% | 1006.2 hPa | 0 mm | - | 0 W/m² | - |
| 1778323569 | 7.78° C | 64% | 1006.5 hPa | 0 mm | - | 0 W/m² | - |
| 1778323266 | 7.22° C | 66% | 1006.4 hPa | 0 mm | - | 0 W/m² | - |
| 1778322964 | 7.78° C | 63% | 1006.4 hPa | 0 mm | - | 0 W/m² | - |
| 1778322662 | 7.78° C | 62% | 1006.4 hPa | 0 mm | - | 0 W/m² | - |
| 1778322359 | 7.78° C | 62% | 1006.3 hPa | 0 mm | - | 0 W/m² | - |
| 1778322056 | 7.78° C | 61% | 1006.1 hPa | 0 mm | - | 0 W/m² | - |
| 1778321752 | 8.33° C | 60% | 1006.2 hPa | 0 mm | - | 0 W/m² | - |
| 1778321449 | 8.33° C | 57% | 1006.4 hPa | 0 mm | - | 0 W/m² | - |
| 1778321146 | 8.89° C | 56% | 1006.5 hPa | 0 mm | - | 0 W/m² | - |
| 1778320844 | 8.89° C | 56% | 1006.3 hPa | 0 mm | - | 0 W/m² | - |
| 1778320540 | 8.89° C | 56% | 1006.3 hPa | 0 mm | - | 0 W/m² | - |
| 1778320238 | 8.89° C | 56% | 1006.4 hPa | 0 mm | - | 0 W/m² | - |
| 1778319934 | 8.89° C | 56% | 1006.3 hPa | 0 mm | - | 0 W/m² | - |
| 1778319631 | 8.89° C | 55% | 1006.3 hPa | 0 mm | - | 0 W/m² | - |
| 1778319329 | 8.89° C | 56% | 1006.6 hPa | 0 mm | - | 0 W/m² | - |
| 1778319027 | 8.89° C | 56% | 1006.2 hPa | 0 mm | - | 0 W/m² | - |
| 1778318724 | 8.89° C | 56% | 1006.3 hPa | 0 mm | - | 0 W/m² | - |
| 1778318423 | 8.89° C | 56% | 1006.5 hPa | 0 mm | - | 0 W/m² | - |
| 1778318120 | 8.89° C | 55% | 1006.3 hPa | 0 mm | - | 0 W/m² | - |
| 1778317816 | 8.89° C | 56% | 1006.2 hPa | 0 mm | - | 0 W/m² | - |
| 1778317514 | 7.22° C | 62% | 1006.3 hPa | 0 mm | - | 0 W/m² | - |
| 1778317212 | 7.78° C | 62% | 1006.2 hPa | 0 mm | - | 0 W/m² | - |
| 1778316908 | 7.78° C | 59% | 1006.4 hPa | 0 mm | - | 0 W/m² | - |
| 1778316604 | 7.22° C | 62% | 1006.4 hPa | 0 mm | - | 0 W/m² | - |
* Rain latest hour (hover to see other rain measurements)
** Current wind speed in m/s (hover to see current wind gust speed)